www.pogodaiklimat.ru

Погода и климат >> Архив погоды >> Россия >> Магаданская область >> Магадан


АРХИВ ПОГОДЫ в Магадане

Время (UTC), дата Ветер
(напр.,м/с)
 
Видим.   Явления Облачность Т
(С)
Тd
(С)
f
(%)
Тe
(С)
Тes
(С)
Комфортность P
(гПа)
Po
(гПа)
Тmin
(С)
Tmax
(С)
R
(мм)
R24
(мм)
S
(см)
18 18.06 СВ 4
{10}
20 км слаб. ливневой дождь 9/8 600 м
[Cb cap Ac trans]
+10.4 +8.1 86 +8 +8 тепло 1005.9 992.0
21 18.06 В 3 50 км {ливн. осадки} 9/8 600 м
[Cb calv Ac trans Ci fib]
+12.6 +8.2 75 +11 +12 тепло 1005.8 992.0 +9.6 0.0
00 19.06 В 3 50 км {ливн. осадки} 9/8 600 м
[Cb calv Ac trans Ci fib]
+14.6 +8.9 69 +14 +15 тепло 1006.7 993.0
03 19.06 В 4 50 км 9/6 600 м
[Cb calv Ac trans Ci fib]
+16.2 +8.5 60 +16 +18 тепло 1007.1 993.5
06 19.06 В 2 50 км 10/9 600 м
[Cb calv Ac und]
+14.5 +7.9 65 +14 +14 тепло 1007.9 994.1
09 19.06 З 4 50 км 10/10 200 м
[Cb calv]
+7.5 +6.7 95 +4 +4 прохладно 1009.3 995.2 +16.2
12 19.06 СВ 3 50 км {ливн. осадки} 10/10 600 м
[Cb calv]
+10.1 +8.8 92 +8 +8 по сезону 1009.3 995.3
15 19.06 СВ 2 50 км 9/9 600 м
[Cb calv Ac trans]
+10.7 +9.1 90 +9 +9 тепло 1009.0 995.0
18 19.06 СВ 2 10 км слаб. ливневой дождь 10/10 300 м
[Cb cap]
+10.0 +8.9 93 +8 +8 тепло 1009.3 995.3
21 19.06 СВ 2 10 км слаб. ливневой дождь 10/10 300 м
[Cb cap]
+10.4 +9.6 95 +9 +9 по сезону 1009.4 995.4 +7.1 0.6
00 20.06 СВ 3 50 км слаб. ливневой дождь 10/10 300 м
[Cb cap]
+11.3 +10.3 94 +9 +9 по сезону 1009.9 995.9
03 20.06 В 3 50 км {ливн. осадки} 10/10 300 м
[Cb calv]
+13.2 +9.5 78 +12 +12 тепло 1009.9 996.0
06 20.06 В 2 20 км слаб. ливневой дождь 10/10 600 м
[Cb cap]
+11.8 +8.8 82 +11 +11 тепло 1010.7 996.8
09 20.06 З 2 500 м слаб. ливневой дождь {туман} туман ?/? +7.0 +6.8 99 +5 +5 по сезону 1012.3 998.1 +13.4 2
12 20.06 В 2 500 м слаб. ливневой дождь {туман} туман ?/? +7.9 +7.8 99 +6 +6 по сезону 1013.3 999.2
15 20.06 В 3 200 м слаб. ливневой дождь {туман} ?/? +7.0 +6.9 99 +4 +4 по сезону 1014.0 999.8
18 20.06 В 1 4000 м слаб. ливневой дождь {туман} 10/10 300 м
[Cb cap]
+6.4 +6.3 99 +5 +5 по сезону 1014.8 1000.5
21 20.06 З 1 20 км {ливн. осадки} 10/10 200 м
[Cb calv]
+6.6 +6.5 99 +5 +5 по сезону 1015.9 1001.6 +6.1 4
00 21.06 З 3 20 км {ливн. осадки} 10/10 200 м
[St]
+6.4 +6.2 99 +3 +3 холодно 1016.9 1002.6
03 21.06 З 4 10 км слаб. ливневой дождь {туман} 10/10 200 м
[Cb cap]
+6.8 +6.5 98 +3 +3 холодно 1017.1 1002.8
06 21.06 З 4 50 км {ливн. осадки, туман} 9/8 200 м
[Cb calv Ac trans]
+7.4 +6.6 95 +4 +4 холодно 1016.7 1002.5
09 21.06 З 3 50 км 9/6 600 м
[Cb calv Ac trans Ci fib]
+7.6 +6.5 93 +5 +5 прохладно 1016.9 1002.7 +8.6 0.0
12 21.06 СЗ 1 50 км в посл. час ливневой дождь 10/10 600 м
[Cb calv]
+6.7 +6.2 97 +5 +5 по сезону 1017.9 1003.6
15 21.06 СВ 2 50 км 9/5 600 м
[Cb calv Ac trans Ci fib]
+8.5 +7.7 95 +6 +6 по сезону 1017.7 1003.5
18 21.06 В 2 50 км 9/8 600 м
[Cb calv Ac trans Ci fib]
+8.7 +7.5 92 +7 +7 по сезону 1017.7 1003.5
21 21.06 В 1 50 км 10/9 200 м
[Cb calv Ac und]
+9.6 +7.8 89 +9 +9 по сезону 1018.0 1003.9 +6.7 0.3
00 22.06 З 2 50 км в посл. час ливневой дождь 9/8 600 м
[Cb calv Ac trans Ci fib]
+9.5 +8.0 90 +8 +10 по сезону 1017.8 1003.7
03 22.06 З 4 50 км 9/6 300 м
[Cb calv Ac trans Ci fib]
+9.9 +8.4 90 +7 +9 по сезону 1017.4 1003.3
06 22.06 З 3 500 м слаб. ливневой дождь {туман} ?/? +8.2 +7.8 97 +5 +5 прохладно 1017.5 1003.3
09 22.06 З 3 20 км слаб. ливневой дождь {туман} 9/9 300 м
[Cb calv Ac trans]
+8.1 +7.8 98 +5 +5 прохладно 1017.1 1002.9 +10.8 0.3
12 22.06 В 1 10 км слаб. ливневой дождь {туман} 10/9 200 м
[Cb cap Ac und]
+8.3 +8.1 99 +7 +7 по сезону 1017.8 1003.6
15 22.06 В 3 200 м слаб. ливневой дождь {туман} туман ?/? +7.8 +7.7 99 +5 +5 по сезону 1017.7 1003.5
18 22.06 В 1 500 м туман {ливн. осадки} ?/? +7.9 +7.8 99 +7 +7 по сезону 1017.5 1003.3
21 22.06 З 2 200 м слаб. ливневой дождь {туман} туман ?/? +7.3 +7.2 99 +5 +5 по сезону 1017.7 1003.4 +7.3 3
00 23.06 З 1 200 м слаб. ливневой дождь {туман} туман ?/? +7.6 +7.6 100 +6 +6 прохладно 1017.7 1003.5 +7.2
03 23.06 З 2 200 м слаб. ливневой дождь {туман} ?/? +8.0 +7.9 99 +6 +6 прохладно 1017.7 1003.5
06 23.06 З 3 10 км слаб. ливневой дождь {туман} 9/9 200 м
[Cb cap Ac trans]
+8.1 +8.0 99 +5 +6 прохладно 1017.2 1003.0
09 23.06 З 5 4000 м в посл. час ливневой дождь {туман} 10/10 200 м
[St]
+6.6 +6.5 99 +2 +2 холодно 1017.5 1003.2 +8.3 3
12 23.06 З 4 200 м слаб. ливневой дождь {туман} туман ?/? +5.6 +5.6 100 +1 +1 холодно 1018.5 1004.1
15 23.06 З 2 500 м слаб. ливневой дождь {туман} туман ?/? +5.6 +5.5 99 +3 +3 прохладно 1019.0 1004.6
18 23.06 штиль 0 4000 м слаб. ливневой дождь {туман} 10/10 200 м
[Cb cap]
+5.7 +5.6 99 +5 +5 по сезону 1019.3 1004.9
21 23.06 З 1 10 км слаб. ливневой дождь 10/10 200 м
[Cb cap]
+6.0 +5.9 99 +5 +5 прохладно 1019.9 1005.5 +5.4 9
00 24.06 З 2 4000 м слаб. ливневой дождь 10/10 200 м
[Cb cap]
+6.8 +6.6 99 +4 +4 холодно 1020.3 1006.0
03 24.06 З 3 50 км {ливн. осадки} 9/8 300 м
[Cb calv Ac trans]
+8.4 +7.2 92 +6 +7 прохладно 1020.2 1006.0
06 24.06 З 4 50 км {ливн. осадки} 9/8 300 м
[Cb calv Ac trans Ci fib]
+8.0 +6.7 91 +5 +5 прохладно 1020.1 1005.8
09 24.06 З 4 50 км 9/8 300 м
[St Ac trans]
+7.1 +6.0 93 +3 +4 холодно 1020.2 1005.9 +8.6 2
12 24.06 ЮЗ 3 20 км 10/10 300 м
[St]
+6.8 +5.5 91 +4 +4 прохладно 1020.0 1005.7
15 24.06 ЮЗ 1 20 км 10/10 300 м
[St]
+6.7 +5.6 93 +6 +6 по сезону 1019.5 1005.2
18 24.06 Ю 1 4000 м слаб. ливневой дождь {морось} 10/10 200 м
[Cb cap]
+6.3 +6.0 98 +5 +5 по сезону 1019.7 1005.3
21 24.06 В 3 10 км слаб. ливневой дождь {туман} 10/10 200 м
[Cb cap]
+6.6 +5.6 93 +3 +3 прохладно 1019.7 1005.4 +6.2 3
00 25.06 В 2 10 км слаб. ливневой дождь {туман} 9/9 200 м
[Cb cap Ac trans]
+7.6 +6.7 94 +5 +7 холодно 1019.8 1005.5
03 25.06 З 3 10 км слаб. ливневой дождь 10/10 200 м
[Cb cap]
+7.4 +6.9 97 +4 +4 холодно 1019.7 1005.5
06 25.06 З 4 50 км {ливн. осадки} 9/6 300 м
[Cb calv Ac trans Ci fib]
+7.9 +6.7 92 +4 +6 холодно 1018.7 1004.5
09 25.06 З 4 50 км 5/3 600 м
[Cb calv Ac trans Ci fib]
+8.0 +7.0 93 +5 +5 прохладно 1017.5 1003.2 +8.9 0.3
12 25.06 З 3 50 км 6/4 300 м
[St Ci fib]
+6.5 +6.2 98 +3 +3 прохладно 1017.2 1002.9
15 25.06 штиль 0 4000 м дымка 9/4 300 м
[St Ac trans Ci fib]
+5.6 +5.5 99 +4 +4 прохладно 1015.5 1001.2

 

Местоположение метеостанции Магадан (Магаданская область, Россия): широта 59.55 долгота 150.70 высота над уровнем моря 116 м.

В архиве по умолчанию представлена погода в Магадане за последнюю неделю. Архивные данные за месяц целиком и за предыдущие месяцы, начиная с января 2011 года, Вы можете получить, выбрав интересующий диапазон дат из раскрывающегося списка и нажав кнопку "Ввод!".


*Определитесь, кто Вы:
робот инопланетянин человек

Внимание! Время в таблицах - всемирное. Для получения местного времени необходимо прибавить поправку, которая равна 11 ч.

Смотрите также архив погоды в соседних городах и на ближайших метеорологических станциях:

Погода в Нагаева (Магаданская область, Россия) (4 км)
Погода в Оле (Магаданская область, Россия) (28 км)
Погода в Армани (Магаданская область, Россия) (36 км)
Погода в Палатке (Магаданская область, Россия) (62 км)
Погода на Мысе Алевина (Магаданская область, Россия) (87 км)
Погода на Острове Спафарьева (Магаданская область, Россия) (106 км)
Погода в Мадауне (Магаданская область, Россия) (117 км)
Погода в Талоне (Магаданская область, Россия) (120 км)
Погода на Мысе Братьев (Магаданская область, Россия) (156 км)
Погода в Усть-Омчуге (Магаданская область, Россия) (185 км)

Пояснения к столбцам:

Ветер - указаны скорость ветра в м/с - средняя за 10 мин, порывы в срок и между сроками (в фигурных скобках) и направление, откуда дует ветер: С - северный, СВ - северо-восточный, В - восточный, ЮВ - юго-восточный, Ю - южный, ЮЗ - юго-западный, З - западный, СЗ - северо-западный.
Видимость - горизонтальная дальность видимости в метрах или километрах. При видимости от 1 до 10 км при отсутствии осадков обычно наблюдается дымка, при ухудшении видимости до 1 км и менее - туман. В сухую погоду видимость может ухудшаться дымом, пылью или мглою.
Явления - указаны атмосферные явления, наблюдавшиеся в срок или в последний час перед сроком; фигурными скобками обозначены явления, наблюдавшиеся между сроками (за 1-3 часа до срока); квадратными скобками обозначены град или гололедные отложения с указанием их диаметра в мм.
Облачность - указаны через наклонную черту общая и нижняя облачность в баллах и высота нижней границы облаков в метрах; квадратными скобками обозначены формы облаков: Ci - перистые, Cs - перисто-слоистые, Cc - перисто-кучевые, Ac - высококучевые, As - высокослоистые, Sc - слоисто-кучевые, Ns - слоисто-дождевые, Cu - кучевые, Cb - кучево-дождевые. Подробнее классификацию облаков см. в Атласе облаков (PDF).
T - Температура воздуха - температура, измеренная на высоте 2 м над землей.
Td - Температура точки росы - температура, при понижении до которой содержащийся в воздухе водяной пар достигнет насыщения.
f - Относительная влажность воздуха - влажноcть воздуха, измеренная на высоте 2 м над землей.
Te - Эффективная температура - температура, которую ощущает одетый по сезону человек в тени. Характеристика душности погоды. При расчете учитывается влияние влажности воздуха и скорости ветра на теплоощущения человека.
Tes - Эффективная температура на солнце - температура, которую ощущает человек, с поправкой на солнечный нагрев. Характеристика знойности погоды. Зависит от высоты солнца над горизонтом, облачности и скорости ветра. Ночью, в пасмурную погоду, а также при ветре 12 м/с и более поправка равна нулю.
P - Атмосферное давление - приведенное к уровню моря атмосферное давление.
Po - Атмосферное давление - измеренное на уровне метеостанции атмосферное давление.
Tmin - Минимальная температура - минимум температуры воздуха на высоте 2 м над землей.
Tmax - Максимальная температура - максимум температуры воздуха на высоте 2 м над землей.
R - Количество осадков - Количество выпавших осадков за период времени, мм. При наведении курсора мыши на число - период времени, за который выпало указанное количество осадков.
R24 - Количество осадков - Количество выпавших осадков за 24 часа, мм.
S - Снежный покров - Высота снежного покрова, см. При наведении курсора мыши на число - состояние снежного покрова и степень покрытия местности в баллах.